Location: gie�en
(50.5804°N, 8.6692°E)
Time: 15:50:43
(UTC+01:00)

Tiangong - Pass Details

Date: 21 October 2021
Orbit: 380 x 384 km, 41.5° (Epoch: 04 December)

Event Time Altitude Azimuth Distance (km) Brightness Sun altitude
Rises 20:08:00 0° 236° (SW) 2,268 5.8 -17.7°
Reaches altitude 10° 20:10:39 10° 213° (SSW) 1,412 4.3 -18.1°
Enters shadow 20:12:28 15° 178° (S) 1,131 3.3 -18.4°
